Time,TemperatureF,DewpointF,PressureIn,WindDirection,WindDirectionDegrees,WindSpeedMPH,WindSpeedGustMPH,Humidity,HourlyPrecipIn,Conditions,Clouds,dailyrainin,SoftwareType,DateUTC
2013-09-10 00:01:00,53.0,48.6,30.18,NE,45,0.0,0.0,85,0.00,,,0.00,Weather View 32 v70,2013-09-10 04:01:00,
2013-09-10 00:02:00,53.0,48.6,30.18,NE,45,0.0,0.0,85,0.00,,,0.00,Weather View 32 v70,2013-09-10 04:02:00,
2013-09-10 00:03:00,53.0,48.6,30.18,NE,45,0.0,0.0,85,0.00,,,0.00,Weather View 32 v70,2013-09-10 04:03:00,
2013-09-10 00:08:00,53.0,48.6,30.18,NE,45,0.0,0.0,85,0.00,,,0.00,Weather View 32 v70,2013-09-10 04:08:00,
2013-09-10 00:13:00,53.0,48.9,30.17,South,180,0.0,0.0,86,0.00,,,0.00,Weather View 32 v70,2013-09-10 04:13:00,
2013-09-10 00:18:00,53.0,48.9,30.17,SE,135,0.0,0.0,86,0.00,,,0.00,Weather View 32 v70,2013-09-10 04:18:00,
2013-09-10 00:23:00,53.0,49.2,30.17,East,90,0.0,0.0,87,0.00,,,0.00,Weather View 32 v70,2013-09-10 04:23:00,
2013-09-10 00:28:00,53.0,49.2,30.17,East,90,0.0,0.0,87,0.00,,,0.00,Weather View 32 v70,2013-09-10 04:28:00,
2013-09-10 00:33:00,53.0,49.2,30.17,ESE,112,0.0,0.0,87,0.00,,,0.00,Weather View 32 v70,2013-09-10 04:33:00,
2013-09-10 00:38:00,52.0,48.5,30.18,SE,135,0.0,0.0,88,0.00,,,0.00,Weather View 32 v70,2013-09-10 04:38:00,
2013-09-10 00:43:00,52.0,48.5,30.18,East,90,0.0,0.0,88,0.00,,,0.00,Weather View 32 v70,2013-09-10 04:43:00,
2013-09-10 00:48:00,52.0,48.5,30.18,East,90,0.0,0.0,88,0.00,,,0.00,Weather View 32 v70,2013-09-10 04:48:00,
2013-09-10 00:53:00,52.0,48.5,30.18,SE,135,0.0,0.0,88,0.00,,,0.00,Weather View 32 v70,2013-09-10 04:53:00,
2013-09-10 00:58:00,52.0,48.5,30.18,ESE,112,0.0,0.0,88,0.00,,,0.00,Weather View 32 v70,2013-09-10 04:58:00,
2013-09-10 01:03:00,52.0,48.5,30.18,ENE,68,0.0,0.0,88,0.00,,,0.00,Weather View 32 v70,2013-09-10 05:03:00,
2013-09-10 01:08:00,52.0,48.5,30.18,East,90,0.0,0.0,88,0.00,,,0.00,Weather View 32 v70,2013-09-10 05:08:00,
2013-09-10 01:13:00,52.0,48.5,30.18,ESE,112,0.0,0.0,88,0.00,,,0.00,Weather View 32 v70,2013-09-10 05:13:00,
2013-09-10 01:18:00,52.0,48.5,30.17,ESE,112,0.0,0.0,88,0.00,,,0.00,Weather View 32 v70,2013-09-10 05:18:00,
2013-09-10 01:23:00,52.0,48.5,30.17,East,90,0.0,0.0,88,0.00,,,0.00,Weather View 32 v70,2013-09-10 05:23:00,
2013-09-10 01:28:00,52.0,48.5,30.17,SE,135,0.0,0.0,88,0.00,,,0.00,Weather View 32 v70,2013-09-10 05:28:00,
2013-09-10 01:33:00,52.0,48.9,30.17,ENE,68,0.0,0.0,89,0.00,,,0.00,Weather View 32 v70,2013-09-10 05:33:00,
2013-09-10 01:38:00,52.0,48.9,30.16,South,180,0.0,0.0,89,0.00,,,0.00,Weather View 32 v70,2013-09-10 05:38:00,
2013-09-10 01:43:00,52.0,48.9,30.16,East,90,0.0,0.0,89,0.00,,,0.00,Weather View 32 v70,2013-09-10 05:43:00,
2013-09-10 01:48:00,52.0,48.9,30.16,SE,135,0.0,0.0,89,0.00,,,0.00,Weather View 32 v70,2013-09-10 05:48:00,
2013-09-10 01:53:00,52.0,48.9,30.16,ENE,68,0.0,0.0,89,0.00,,,0.00,Weather View 32 v70,2013-09-10 05:53:00,
2013-09-10 01:58:00,52.0,49.2,30.16,NE,45,0.0,0.0,90,0.00,,,0.00,Weather View 32 v70,2013-09-10 05:58:00,
2013-09-10 02:03:00,52.0,49.2,30.16,NNE,22,0.0,0.0,90,0.00,,,0.00,Weather View 32 v70,2013-09-10 06:03:00,
2013-09-10 02:08:00,52.0,49.2,30.17,North,0,0.0,0.0,90,0.00,,,0.00,Weather View 32 v70,2013-09-10 06:08:00,
2013-09-10 02:13:00,52.0,49.4,30.17,NNW,338,0.0,0.0,91,0.00,,,0.00,Weather View 32 v70,2013-09-10 06:13:00,
2013-09-10 02:18:00,52.0,49.2,30.17,ESE,112,0.0,0.0,90,0.00,,,0.00,Weather View 32 v70,2013-09-10 06:18:00,
2013-09-10 02:23:00,52.0,49.4,30.17,ESE,112,0.0,0.0,91,0.00,,,0.00,Weather View 32 v70,2013-09-10 06:23:00,
2013-09-10 02:28:00,52.0,49.4,30.17,ESE,112,0.0,0.0,91,0.00,,,0.00,Weather View 32 v70,2013-09-10 06:28:00,
2013-09-10 02:33:00,52.0,48.9,30.17,East,90,0.0,0.0,89,0.00,,,0.00,Weather View 32 v70,2013-09-10 06:33:00,
2013-09-10 02:38:00,52.0,49.2,30.17,SSE,158,0.0,0.0,90,0.00,,,0.00,Weather View 32 v70,2013-09-10 06:38:00,
2013-09-10 02:43:00,52.0,49.2,30.17,East,90,0.0,0.0,90,0.00,,,0.00,Weather View 32 v70,2013-09-10 06:43:00,
2013-09-10 02:48:00,52.0,49.2,30.17,ESE,112,0.0,0.0,90,0.00,,,0.00,Weather View 32 v70,2013-09-10 06:48:00,
2013-09-10 02:53:00,52.0,49.2,30.17,ESE,112,0.0,0.0,90,0.00,,,0.00,Weather View 32 v70,2013-09-10 06:53:00,
2013-09-10 02:58:00,52.0,49.2,30.16,East,90,0.0,0.0,90,0.00,,,0.00,Weather View 32 v70,2013-09-10 06:58:00,
2013-09-10 03:03:00,52.0,49.2,30.16,SE,135,0.0,0.0,90,0.00,,,0.00,Weather View 32 v70,2013-09-10 07:03:00,
2013-09-10 03:08:00,52.0,49.2,30.16,SSE,158,0.0,0.0,90,0.00,,,0.00,Weather View 32 v70,2013-09-10 07:08:00,
2013-09-10 03:13:00,52.0,49.4,30.16,SSW,202,0.0,0.0,91,0.00,,,0.00,Weather View 32 v70,2013-09-10 07:13:00,
2013-09-10 03:18:00,53.0,50.4,30.16,WSW,248,0.0,0.0,91,0.00,,,0.00,Weather View 32 v70,2013-09-10 07:18:00,
2013-09-10 03:23:00,53.0,50.1,30.16,South,180,0.0,0.0,90,0.00,,,0.00,Weather View 32 v70,2013-09-10 07:23:00,
2013-09-10 03:28:00,53.0,50.4,30.16,WSW,248,0.0,0.0,91,0.00,,,0.00,Weather View 32 v70,2013-09-10 07:28:00,
2013-09-10 03:33:00,54.0,51.4,30.16,South,180,0.0,0.0,91,0.00,,,0.00,Weather View 32 v70,2013-09-10 07:33:00,
2013-09-10 03:38:00,54.0,51.4,30.15,East,90,0.0,0.0,91,0.00,,,0.00,Weather View 32 v70,2013-09-10 07:38:00,
2013-09-10 03:43:00,54.0,51.1,30.15,ENE,68,0.0,0.0,90,0.00,,,0.00,Weather View 32 v70,2013-09-10 07:43:00,
2013-09-10 03:48:00,54.0,51.4,30.15,ENE,68,0.0,0.0,91,0.00,,,0.00,Weather View 32 v70,2013-09-10 07:48:00,
2013-09-10 03:53:00,55.0,52.4,30.15,ESE,112,0.0,0.0,91,0.00,,,0.00,Weather View 32 v70,2013-09-10 07:53:00,
2013-09-10 03:58:00,55.0,52.4,30.15,East,90,0.0,0.0,91,0.00,,,0.00,Weather View 32 v70,2013-09-10 07:58:00,
2013-09-10 04:03:00,55.0,52.4,30.15,South,180,0.0,0.0,91,0.00,,,0.00,Weather View 32 v70,2013-09-10 08:03:00,
2013-09-10 04:08:00,55.0,52.4,30.15,SW,225,0.0,0.0,91,0.00,,,0.00,Weather View 32 v70,2013-09-10 08:08:00,
2013-09-10 04:13:00,55.0,52.4,30.15,SW,225,0.0,0.0,91,0.00,,,0.00,Weather View 32 v70,2013-09-10 08:13:00,
2013-09-10 04:18:00,56.0,53.4,30.15,SE,135,0.0,0.0,91,0.00,,,0.00,Weather View 32 v70,2013-09-10 08:18:00,
2013-09-10 04:23:00,56.0,53.4,30.15,East,90,0.0,0.0,91,0.00,,,0.00,Weather View 32 v70,2013-09-10 08:23:00,
2013-09-10 04:28:00,56.0,53.4,30.15,East,90,0.0,0.0,91,0.00,,,0.00,Weather View 32 v70,2013-09-10 08:28:00,
2013-09-10 04:33:00,56.0,53.4,30.15,ENE,68,0.0,0.0,91,0.00,,,0.00,Weather View 32 v70,2013-09-10 08:33:00,
2013-09-10 04:38:00,57.0,54.4,30.15,North,0,0.0,0.0,91,0.00,,,0.00,Weather View 32 v70,2013-09-10 08:38:00,
2013-09-10 04:43:00,57.0,54.4,30.15,SSE,158,0.0,0.0,91,0.00,,,0.00,Weather View 32 v70,2013-09-10 08:43:00,
2013-09-10 04:48:00,57.0,54.4,30.15,South,180,0.0,0.0,91,0.00,,,0.00,Weather View 32 v70,2013-09-10 08:48:00,
2013-09-10 04:53:00,57.0,54.7,30.15,South,180,0.0,0.0,92,0.00,,,0.00,Weather View 32 v70,2013-09-10 08:53:00,
2013-09-10 04:58:00,58.0,55.7,30.15,ESE,112,0.0,0.0,92,0.00,,,0.00,Weather View 32 v70,2013-09-10 08:58:00,
2013-09-10 05:03:00,58.0,55.7,30.15,SSW,202,0.0,0.0,92,0.00,,,0.00,Weather View 32 v70,2013-09-10 09:03:00,
2013-09-10 05:08:00,58.0,55.4,30.15,SW,225,0.0,0.0,91,0.00,,,0.00,Weather View 32 v70,2013-09-10 09:08:00,
2013-09-10 05:13:00,58.0,55.4,30.15,SSW,202,0.0,0.0,91,0.00,,,0.00,Weather View 32 v70,2013-09-10 09:13:00,
2013-09-10 05:18:00,59.0,56.4,30.14,SSW,202,0.0,0.0,91,0.00,,,0.00,Weather View 32 v70,2013-09-10 09:18:00,
2013-09-10 05:23:00,59.0,56.4,30.15,SW,225,0.0,0.0,91,0.00,,,0.00,Weather View 32 v70,2013-09-10 09:23:00,
2013-09-10 05:28:00,59.0,56.4,30.15,SW,225,0.0,0.0,91,0.00,,,0.00,Weather View 32 v70,2013-09-10 09:28:00,
2013-09-10 05:33:00,60.0,57.0,30.15,South,180,0.0,0.0,90,0.00,,,0.00,Weather View 32 v70,2013-09-10 09:33:00,
2013-09-10 05:38:00,60.0,56.7,30.15,SSW,202,0.0,0.0,89,0.00,,,0.00,Weather View 32 v70,2013-09-10 09:38:00,
2013-09-10 05:43:00,61.0,57.7,30.14,SW,225,0.0,1.0,89,0.00,,,0.00,Weather View 32 v70,2013-09-10 09:43:00,
2013-09-10 05:48:00,61.0,57.4,30.15,SSE,158,0.0,1.0,88,0.00,,,0.00,Weather View 32 v70,2013-09-10 09:48:00,
2013-09-10 05:53:00,61.0,57.4,30.15,WSW,248,0.0,1.0,88,0.00,,,0.00,Weather View 32 v70,2013-09-10 09:53:00,
2013-09-10 05:58:00,62.0,58.1,30.15,ESE,112,0.0,1.0,87,0.00,,,0.00,Weather View 32 v70,2013-09-10 09:58:00,
2013-09-10 06:03:00,62.0,58.1,30.15,SSW,202,0.0,1.0,87,0.00,,,0.00,Weather View 32 v70,2013-09-10 10:03:00,
2013-09-10 06:08:00,62.0,57.8,30.15,SW,225,0.0,1.0,86,0.00,,,0.00,Weather View 32 v70,2013-09-10 10:08:00,
2013-09-10 06:13:00,62.0,57.4,30.15,SSW,202,0.0,1.0,85,0.00,,,0.00,Weather View 32 v70,2013-09-10 10:13:00,
2013-09-10 06:18:00,62.0,57.4,30.15,South,180,0.0,1.0,85,0.00,,,0.00,Weather View 32 v70,2013-09-10 10:18:00,
2013-09-10 06:23:00,63.0,58.1,30.15,South,180,0.0,1.0,84,0.00,,,0.00,Weather View 32 v70,2013-09-10 10:23:00,
2013-09-10 06:28:00,63.0,57.7,30.15,SSW,202,0.0,5.0,83,0.00,,,0.00,Weather View 32 v70,2013-09-10 10:28:00,
2013-09-10 06:33:00,63.0,57.1,30.15,SW,225,3.0,5.0,81,0.00,,,0.00,Weather View 32 v70,2013-09-10 10:33:00,
2013-09-10 06:38:00,63.0,56.7,30.15,South,180,0.0,6.0,80,0.00,,,0.00,Weather View 32 v70,2013-09-10 10:38:00,
2013-09-10 06:43:00,64.0,57.7,30.15,WSW,248,0.0,6.0,80,0.00,,,0.00,Weather View 32 v70,2013-09-10 10:43:00,
2013-09-10 06:48:00,64.0,58.0,30.15,SW,225,0.0,6.0,81,0.00,,,0.00,Weather View 32 v70,2013-09-10 10:48:00,
2013-09-10 06:53:00,64.0,57.7,30.15,WNW,292,0.0,6.0,80,0.00,,,0.00,Weather View 32 v70,2013-09-10 10:53:00,
2013-09-10 06:58:00,64.0,57.3,30.15,SW,225,0.0,7.0,79,0.00,,,0.00,Weather View 32 v70,2013-09-10 10:58:00,
2013-09-10 07:03:00,64.0,57.3,30.15,West,270,0.0,7.0,79,0.00,,,0.00,Weather View 32 v70,2013-09-10 11:03:00,
2013-09-10 07:08:00,65.0,58.3,30.16,SW,225,0.0,7.0,79,0.00,,,0.00,Weather View 32 v70,2013-09-10 11:08:00,
2013-09-10 07:13:00,65.0,58.0,30.16,SSE,158,4.0,8.0,78,0.00,,,0.00,Weather View 32 v70,2013-09-10 11:13:00,
2013-09-10 07:18:00,65.0,57.6,30.16,SW,225,3.0,8.0,77,0.00,,,0.00,Weather View 32 v70,2013-09-10 11:18:00,
2013-09-10 07:24:00,65.0,57.2,30.16,SSW,202,5.0,9.0,76,0.00,,,0.00,Weather View 32 v70,2013-09-10 11:24:00,
2013-09-10 07:29:00,65.0,57.2,30.16,SE,135,0.0,9.0,76,0.00,,,0.00,Weather View 32 v70,2013-09-10 11:29:00,
2013-09-10 07:34:00,65.0,57.2,30.16,SSW,202,4.0,9.0,76,0.00,,,0.00,Weather View 32 v70,2013-09-10 11:34:00,
2013-09-10 07:39:00,65.0,57.2,30.16,WSW,248,0.0,10.0,76,0.00,,,0.00,Weather View 32 v70,2013-09-10 11:39:00,
2013-09-10 07:44:00,65.0,57.2,30.16,SW,225,0.0,10.0,76,0.00,,,0.00,Weather View 32 v70,2013-09-10 11:44:00,
2013-09-10 07:49:00,65.0,57.6,30.16,SSE,158,0.0,10.0,77,0.00,,,0.00,Weather View 32 v70,2013-09-10 11:49:00,
2013-09-10 07:54:00,65.0,57.6,30.16,SW,225,0.0,10.0,77,0.00,,,0.00,Weather View 32 v70,2013-09-10 11:54:00,
2013-09-10 07:59:00,65.0,58.0,30.16,West,270,0.0,10.0,78,0.00,,,0.00,Weather View 32 v70,2013-09-10 11:59:00,
2013-09-10 08:04:00,65.0,58.3,30.16,SW,225,3.0,10.0,79,0.00,,,0.00,Weather View 32 v70,2013-09-10 12:04:00,
2013-09-10 08:09:00,64.0,58.0,30.15,SSE,158,0.0,10.0,81,0.00,,,0.00,Weather View 32 v70,2013-09-10 12:09:00,
2013-09-10 08:14:00,64.0,58.4,30.15,NW,315,0.0,10.0,82,0.00,,,0.00,Weather View 32 v70,2013-09-10 12:14:00,
2013-09-10 08:19:00,64.0,58.4,30.15,SSE,158,0.0,10.0,82,0.00,,,0.00,Weather View 32 v70,2013-09-10 12:19:00,
2013-09-10 08:24:00,64.0,58.7,30.15,South,180,0.0,10.0,83,0.00,,,0.00,Weather View 32 v70,2013-09-10 12:24:00,
2013-09-10 08:29:00,64.0,58.7,30.15,SW,225,0.0,10.0,83,0.00,,,0.00,Weather View 32 v70,2013-09-10 12:29:00,
2013-09-10 08:34:00,64.0,59.1,30.15,South,180,0.0,10.0,84,0.00,,,0.00,Weather View 32 v70,2013-09-10 12:34:00,
2013-09-10 08:39:00,64.0,59.1,30.15,South,180,0.0,9.0,84,0.00,,,0.00,Weather View 32 v70,2013-09-10 12:39:00,
2013-09-10 08:44:00,64.0,59.4,30.15,SSW,202,0.0,9.0,85,0.00,,,0.00,Weather View 32 v70,2013-09-10 12:44:00,
2013-09-10 08:49:00,64.0,59.4,30.15,SW,225,0.0,9.0,85,0.00,,,0.00,Weather View 32 v70,2013-09-10 12:49:00,
2013-09-10 08:54:00,64.0,59.4,30.15,SSW,202,0.0,9.0,85,0.00,,,0.00,Weather View 32 v70,2013-09-10 12:54:00,
2013-09-10 08:59:00,64.0,59.4,30.15,ENE,68,0.0,9.0,85,0.00,,,0.00,Weather View 32 v70,2013-09-10 12:59:00,
2013-09-10 09:04:00,64.0,59.4,30.16,SSW,202,0.0,9.0,85,0.00,,,0.00,Weather View 32 v70,2013-09-10 13:04:00,
2013-09-10 09:09:00,64.0,59.4,30.16,SSW,202,0.0,5.0,85,0.00,,,0.00,Weather View 32 v70,2013-09-10 13:09:00,
2013-09-10 09:14:00,64.0,59.4,30.16,SE,135,2.0,5.0,85,0.00,,,0.00,Weather View 32 v70,2013-09-10 13:14:00,
2013-09-10 09:19:00,65.0,60.4,30.16,SSE,158,0.0,5.0,85,0.00,,,0.00,Weather View 32 v70,2013-09-10 13:19:00,
2013-09-10 09:24:00,65.0,60.4,30.16,West,270,0.0,6.0,85,0.00,,,0.00,Weather View 32 v70,2013-09-10 13:24:00,
2013-09-10 09:29:00,65.0,60.4,30.15,SSW,202,4.0,7.0,85,0.00,,,0.00,Weather View 32 v70,2013-09-10 13:29:00,
2013-09-10 09:34:00,65.0,61.3,30.15,SSW,202,4.0,7.0,88,0.00,,,0.00,Weather View 32 v70,2013-09-10 13:34:00,
2013-09-10 09:39:00,66.0,61.3,30.15,SSW,202,0.0,8.0,85,0.00,,,0.00,Weather View 32 v70,2013-09-10 13:39:00,
2013-09-10 09:44:00,66.0,61.3,30.15,SE,135,0.0,9.0,85,0.00,,,0.00,Weather View 32 v70,2013-09-10 13:44:00,
2013-09-10 09:49:00,67.0,61.6,30.15,South,180,3.0,9.0,83,0.00,,,0.00,Weather View 32 v70,2013-09-10 13:49:00,
2013-09-10 09:54:00,67.0,61.0,30.15,South,180,5.0,9.0,81,0.00,,,0.00,Weather View 32 v70,2013-09-10 13:54:00,
2013-09-10 09:59:00,68.0,62.3,30.14,North,0,0.0,9.0,82,0.00,,,0.00,Weather View 32 v70,2013-09-10 13:59:00,
2013-09-10 10:04:00,69.0,62.6,30.15,South,180,6.0,9.0,80,0.00,,,0.00,Weather View 32 v70,2013-09-10 14:04:00,
2013-09-10 10:09:00,69.0,61.8,30.14,West,270,4.0,11.0,78,0.00,,,0.00,Weather View 32 v70,2013-09-10 14:09:00,
2013-09-10 10:14:00,69.0,61.8,30.14,SW,225,2.0,13.0,78,0.00,,,0.00,Weather View 32 v70,2013-09-10 14:14:00,
2013-09-10 10:19:00,69.0,61.8,30.14,SW,225,3.0,13.0,78,0.00,,,0.00,Weather View 32 v70,2013-09-10 14:19:00,
2013-09-10 10:24:00,69.0,61.8,30.15,SSW,202,10.0,13.0,78,0.00,,,0.00,Weather View 32 v70,2013-09-10 14:24:00,
2013-09-10 10:29:00,69.0,61.5,30.14,South,180,9.0,13.0,77,0.00,,,0.00,Weather View 32 v70,2013-09-10 14:29:00,
2013-09-10 10:34:00,69.0,61.5,30.14,WSW,248,4.0,13.0,77,0.00,,,0.00,Weather View 32 v70,2013-09-10 14:34:00,
2013-09-10 10:39:00,69.0,61.8,30.14,SSW,202,3.0,13.0,78,0.00,,,0.00,Weather View 32 v70,2013-09-10 14:39:00,
2013-09-10 10:44:00,69.0,61.5,30.15,South,180,2.0,13.0,77,0.00,,,0.00,Weather View 32 v70,2013-09-10 14:44:00,
2013-09-10 10:49:00,69.0,61.5,30.15,South,180,7.0,13.0,77,0.00,,,0.00,Weather View 32 v70,2013-09-10 14:49:00,
2013-09-10 10:54:00,69.0,61.8,30.15,SW,225,4.0,13.0,78,0.00,,,0.00,Weather View 32 v70,2013-09-10 14:54:00,
2013-09-10 11:00:00,69.0,61.8,30.15,SW,225,5.0,13.0,78,0.00,,,0.00,Weather View 32 v70,2013-09-10 15:00:00,
2013-09-10 11:05:00,69.0,61.5,30.15,SSW,202,7.0,13.0,77,0.00,,,0.00,Weather View 32 v70,2013-09-10 15:05:00,
2013-09-10 11:10:00,70.0,62.8,30.15,WSW,248,2.0,13.0,78,0.00,,,0.00,Weather View 32 v70,2013-09-10 15:10:00,
2013-09-10 11:15:00,70.0,62.8,30.15,SW,225,0.0,12.0,78,0.00,,,0.00,Weather View 32 v70,2013-09-10 15:15:00,
2013-09-10 11:20:00,70.0,62.4,30.14,SSW,202,3.0,12.0,77,0.00,,,0.00,Weather View 32 v70,2013-09-10 15:20:00,
2013-09-10 11:25:00,70.0,62.4,30.14,WSW,248,4.0,12.0,77,0.00,,,0.00,Weather View 32 v70,2013-09-10 15:25:00,
2013-09-10 11:30:00,70.0,62.4,30.15,South,180,5.0,12.0,77,0.00,,,0.00,Weather View 32 v70,2013-09-10 15:30:00,
2013-09-10 11:35:00,70.0,62.4,30.15,SW,225,2.0,12.0,77,0.00,,,0.00,Weather View 32 v70,2013-09-10 15:35:00,
2013-09-10 11:40:00,70.0,62.4,30.14,SW,225,3.0,12.0,77,0.00,,,0.00,Weather View 32 v70,2013-09-10 15:40:00,
2013-09-10 11:45:00,70.0,62.8,30.14,SSW,202,3.0,12.0,78,0.00,,,0.00,Weather View 32 v70,2013-09-10 15:45:00,
2013-09-10 11:50:00,70.0,62.8,30.14,SSW,202,7.0,12.0,78,0.00,,,0.00,Weather View 32 v70,2013-09-10 15:50:00,
2013-09-10 11:55:00,70.0,62.8,30.14,South,180,2.0,12.0,78,0.00,,,0.00,Weather View 32 v70,2013-09-10 15:55:00,
2013-09-10 12:00:00,71.0,63.8,30.14,South,180,7.0,11.0,78,0.00,,,0.00,Weather View 32 v70,2013-09-10 16:00:00,
2013-09-10 12:05:00,71.0,63.8,30.13,SSW,202,3.0,11.0,78,0.00,,,0.00,Weather View 32 v70,2013-09-10 16:05:00,
2013-09-10 12:10:00,71.0,63.8,30.12,SSW,202,3.0,11.0,78,0.00,,,0.00,Weather View 32 v70,2013-09-10 16:10:00,
2013-09-10 12:15:00,71.0,63.4,30.13,SSW,202,4.0,11.0,77,0.00,,,0.00,Weather View 32 v70,2013-09-10 16:15:00,
2013-09-10 12:20:00,71.0,63.4,30.14,SW,225,4.0,11.0,77,0.00,,,0.00,Weather View 32 v70,2013-09-10 16:20:00,
2013-09-10 12:25:00,71.0,63.8,30.13,SW,225,1.0,11.0,78,0.00,,,0.00,Weather View 32 v70,2013-09-10 16:25:00,
2013-09-10 12:30:00,71.0,63.8,30.11,SSE,158,0.0,11.0,78,0.00,,,0.00,Weather View 32 v70,2013-09-10 16:30:00,
2013-09-10 12:35:00,71.0,63.8,30.10,South,180,3.0,11.0,78,0.00,,,0.00,Weather View 32 v70,2013-09-10 16:35:00,
2013-09-10 12:40:00,71.0,63.8,30.10,South,180,2.0,11.0,78,0.00,,,0.00,Weather View 32 v70,2013-09-10 16:40:00,
2013-09-10 12:45:00,71.0,63.8,30.10,South,180,5.0,11.0,78,0.00,,,0.00,Weather View 32 v70,2013-09-10 16:45:00,
2013-09-10 12:50:00,71.0,64.1,30.08,SSW,202,6.0,12.0,79,0.00,,,0.00,Weather View 32 v70,2013-09-10 16:50:00,
2013-09-10 12:55:00,71.0,64.1,30.07,East,90,5.0,12.0,79,0.00,,,0.00,Weather View 32 v70,2013-09-10 16:55:00,
2013-09-10 13:00:00,72.0,65.1,30.06,SSW,202,7.0,12.0,79,0.00,,,0.00,Weather View 32 v70,2013-09-10 17:00:00,
2013-09-10 13:05:00,72.0,64.4,30.07,SSW,202,10.0,16.0,77,0.00,,,0.00,Weather View 32 v70,2013-09-10 17:05:00,
2013-09-10 13:10:00,73.0,65.3,30.07,South,180,3.0,16.0,77,0.00,,,0.00,Weather View 32 v70,2013-09-10 17:10:00,
2013-09-10 13:15:00,73.0,65.0,30.06,SE,135,2.0,16.0,76,0.00,,,0.00,Weather View 32 v70,2013-09-10 17:15:00,
2013-09-10 13:20:00,73.0,64.6,30.06,SE,135,5.0,16.0,75,0.00,,,0.00,Weather View 32 v70,2013-09-10 17:20:00,
2013-09-10 13:25:00,73.0,64.6,30.07,SSW,202,3.0,17.0,75,0.00,,,0.00,Weather View 32 v70,2013-09-10 17:25:00,
2013-09-10 13:30:00,73.0,64.6,30.07,SW,225,5.0,17.0,75,0.00,,,0.00,Weather View 32 v70,2013-09-10 17:30:00,
2013-09-10 13:35:00,73.0,65.0,30.07,SW,225,2.0,17.0,76,0.00,,,0.00,Weather View 32 v70,2013-09-10 17:35:00,
2013-09-10 13:40:00,73.0,65.0,30.06,WSW,248,4.0,17.0,76,0.00,,,0.00,Weather View 32 v70,2013-09-10 17:40:00,
2013-09-10 13:45:00,74.0,65.9,30.07,SSW,202,6.0,17.0,76,0.00,,,0.00,Weather View 32 v70,2013-09-10 17:45:00,
2013-09-10 13:50:00,74.0,65.5,30.06,South,180,0.0,17.0,75,0.00,,,0.00,Weather View 32 v70,2013-09-10 17:50:00,
2013-09-10 13:55:00,74.0,65.5,30.06,SSE,158,2.0,17.0,75,0.00,,,0.00,Weather View 32 v70,2013-09-10 17:55:00,
2013-09-10 14:00:00,75.0,66.5,30.06,SSW,202,2.0,17.0,75,0.00,,,0.00,Weather View 32 v70,2013-09-10 18:00:00,
2013-09-10 14:05:00,75.0,66.5,30.07,South,180,2.0,17.0,75,0.00,,,0.00,Weather View 32 v70,2013-09-10 18:05:00,
2013-09-10 14:10:00,75.0,66.1,30.07,SSW,202,4.0,17.0,74,0.00,,,0.00,Weather View 32 v70,2013-09-10 18:10:00,
2013-09-10 14:15:00,75.0,66.1,30.07,East,90,4.0,17.0,74,0.00,,,0.00,Weather View 32 v70,2013-09-10 18:15:00,
2013-09-10 14:20:00,75.0,65.7,30.06,South,180,4.0,17.0,73,0.00,,,0.00,Weather View 32 v70,2013-09-10 18:20:00,
2013-09-10 14:25:00,75.0,66.1,30.06,SW,225,5.0,12.0,74,0.00,,,0.00,Weather View 32 v70,2013-09-10 18:25:00,
2013-09-10 14:30:00,75.0,66.5,30.06,South,180,7.0,12.0,75,0.00,,,0.00,Weather View 32 v70,2013-09-10 18:30:00,
2013-09-10 14:35:00,75.0,66.5,30.07,SW,225,5.0,16.0,75,0.00,,,0.00,Weather View 32 v70,2013-09-10 18:35:00,
2013-09-10 14:40:00,75.0,66.5,30.07,SW,225,5.0,19.0,75,0.00,,,0.00,Weather View 32 v70,2013-09-10 18:40:00,
2013-09-10 14:45:00,74.0,65.9,30.07,West,270,4.0,19.0,76,0.00,,,0.00,Weather View 32 v70,2013-09-10 18:45:00,
2013-09-10 14:50:00,75.0,66.9,30.07,SSW,202,5.0,19.0,76,0.00,,,0.00,Weather View 32 v70,2013-09-10 18:50:00,
2013-09-10 14:55:00,75.0,66.9,30.07,SW,225,4.0,19.0,76,0.00,,,0.00,Weather View 32 v70,2013-09-10 18:55:00,
2013-09-10 15:00:00,75.0,66.9,30.08,SSW,202,5.0,19.0,76,0.00,,,0.00,Weather View 32 v70,2013-09-10 19:00:00,
2013-09-10 15:05:00,74.0,65.5,30.08,SW,225,4.0,19.0,75,0.00,,,0.00,Weather View 32 v70,2013-09-10 19:05:00,
2013-09-10 15:10:00,74.0,65.9,30.08,ESE,112,2.0,19.0,76,0.00,,,0.00,Weather View 32 v70,2013-09-10 19:10:00,
2013-09-10 15:15:00,74.0,65.9,30.08,SSW,202,3.0,19.0,76,0.00,,,0.00,Weather View 32 v70,2013-09-10 19:15:00,
2013-09-10 15:20:00,74.0,66.3,30.08,SSE,158,2.0,19.0,77,0.00,,,0.00,Weather View 32 v70,2013-09-10 19:20:00,
2013-09-10 15:25:00,74.0,66.3,30.08,South,180,7.0,19.0,77,0.00,,,0.00,Weather View 32 v70,2013-09-10 19:25:00,
2013-09-10 15:30:00,74.0,66.3,30.08,SSE,158,2.0,19.0,77,0.00,,,0.00,Weather View 32 v70,2013-09-10 19:30:00,
2013-09-10 15:35:00,75.0,67.6,30.08,NW,315,0.0,19.0,78,0.00,,,0.00,Weather View 32 v70,2013-09-10 19:35:00,
2013-09-10 15:40:00,75.0,66.9,30.08,SSW,202,3.0,15.0,76,0.00,,,0.00,Weather View 32 v70,2013-09-10 19:40:00,
2013-09-10 15:45:00,75.0,66.9,30.07,NW,315,2.0,15.0,76,0.00,,,0.00,Weather View 32 v70,2013-09-10 19:45:00,
2013-09-10 15:50:00,75.0,66.9,30.08,SSE,158,5.0,12.0,76,0.00,,,0.00,Weather View 32 v70,2013-09-10 19:50:00,
2013-09-10 15:55:00,75.0,66.9,30.08,SW,225,5.0,11.0,76,0.00,,,0.00,Weather View 32 v70,2013-09-10 19:55:00,
2013-09-10 16:00:00,75.0,66.9,30.08,West,270,4.0,11.0,76,0.00,,,0.00,Weather View 32 v70,2013-09-10 20:00:00,
2013-09-10 16:05:00,75.0,66.9,30.08,SSW,202,7.0,11.0,76,0.00,,,0.00,Weather View 32 v70,2013-09-10 20:05:00,
2013-09-10 16:10:00,75.0,66.9,30.08,SW,225,4.0,11.0,76,0.00,,,0.00,Weather View 32 v70,2013-09-10 20:10:00,
2013-09-10 16:15:00,75.0,67.3,30.07,SW,225,5.0,12.0,77,0.00,,,0.00,Weather View 32 v70,2013-09-10 20:15:00,
2013-09-10 16:20:00,75.0,66.9,30.07,SSW,202,5.0,12.0,76,0.00,,,0.00,Weather View 32 v70,2013-09-10 20:20:00,
2013-09-10 16:25:00,75.0,66.9,30.08,WSW,248,3.0,12.0,76,0.00,,,0.00,Weather View 32 v70,2013-09-10 20:25:00,
2013-09-10 16:30:00,75.0,66.9,30.08,WSW,248,0.0,12.0,76,0.00,,,0.00,Weather View 32 v70,2013-09-10 20:30:00,
2013-09-10 16:35:00,75.0,66.9,30.08,WSW,248,5.0,12.0,76,0.00,,,0.00,Weather View 32 v70,2013-09-10 20:35:00,
2013-09-10 16:40:00,75.0,66.9,30.07,South,180,2.0,12.0,76,0.00,,,0.00,Weather View 32 v70,2013-09-10 20:40:00,
2013-09-10 16:45:00,75.0,66.9,30.07,SSW,202,0.0,12.0,76,0.00,,,0.00,Weather View 32 v70,2013-09-10 20:45:00,
2013-09-10 16:50:00,75.0,67.3,30.07,SSW,202,3.0,12.0,77,0.00,,,0.00,Weather View 32 v70,2013-09-10 20:50:00,
2013-09-10 16:55:00,75.0,67.3,30.07,SSW,202,0.0,12.0,77,0.00,,,0.00,Weather View 32 v70,2013-09-10 20:55:00,
2013-09-10 17:00:00,75.0,67.3,30.08,SSE,158,3.0,12.0,77,0.00,,,0.00,Weather View 32 v70,2013-09-10 21:00:00,
2013-09-10 17:05:00,75.0,67.6,30.07,SSW,202,3.0,12.0,78,0.00,,,0.00,Weather View 32 v70,2013-09-10 21:05:00,
2013-09-10 17:10:00,75.0,67.6,30.07,SSE,158,1.0,12.0,78,0.00,,,0.00,Weather View 32 v70,2013-09-10 21:10:00,
2013-09-10 17:15:00,75.0,67.6,30.07,SW,225,1.0,9.0,78,0.00,,,0.00,Weather View 32 v70,2013-09-10 21:15:00,
2013-09-10 17:20:00,74.0,66.7,30.07,SE,135,0.0,9.0,78,0.00,,,0.00,Weather View 32 v70,2013-09-10 21:20:00,
2013-09-10 17:26:00,74.0,67.0,30.07,South,180,2.0,9.0,79,0.00,,,0.00,Weather View 32 v70,2013-09-10 21:26:00,
2013-09-10 17:31:00,74.0,67.0,30.07,SW,225,0.0,10.0,79,0.00,,,0.00,Weather View 32 v70,2013-09-10 21:31:00,
2013-09-10 17:36:00,75.0,68.0,30.07,SW,225,0.0,10.0,79,0.00,,,0.00,Weather View 32 v70,2013-09-10 21:36:00,
2013-09-10 17:41:00,75.0,68.0,30.07,WSW,248,4.0,10.0,79,0.00,,,0.00,Weather View 32 v70,2013-09-10 21:41:00,
2013-09-10 17:46:00,75.0,68.0,30.07,SW,225,4.0,10.0,79,0.00,,,0.00,Weather View 32 v70,2013-09-10 21:46:00,
2013-09-10 17:51:00,75.0,68.0,30.07,SW,225,3.0,10.0,79,0.00,,,0.00,Weather View 32 v70,2013-09-10 21:51:00,
2013-09-10 17:56:00,74.0,67.0,30.07,SSW,202,3.0,10.0,79,0.00,,,0.00,Weather View 32 v70,2013-09-10 21:56:00,
2013-09-10 18:01:00,74.0,67.0,30.07,WSW,248,2.0,10.0,79,0.00,,,0.00,Weather View 32 v70,2013-09-10 22:01:00,
2013-09-10 18:06:00,74.0,67.0,30.07,SSW,202,0.0,10.0,79,0.00,,,0.00,Weather View 32 v70,2013-09-10 22:06:00,
2013-09-10 18:11:00,74.0,67.4,30.06,SSW,202,0.0,10.0,80,0.00,,,0.00,Weather View 32 v70,2013-09-10 22:11:00,
2013-09-10 18:16:00,74.0,67.4,30.06,SW,225,5.0,10.0,80,0.00,,,0.00,Weather View 32 v70,2013-09-10 22:16:00,
2013-09-10 18:21:00,74.0,67.4,30.06,SW,225,2.0,10.0,80,0.00,,,0.00,Weather View 32 v70,2013-09-10 22:21:00,
2013-09-10 18:26:00,74.0,67.8,30.06,SW,225,7.0,10.0,81,0.00,,,0.00,Weather View 32 v70,2013-09-10 22:26:00,
2013-09-10 18:31:00,74.0,67.8,30.06,South,180,0.0,10.0,81,0.00,,,0.00,Weather View 32 v70,2013-09-10 22:31:00,
2013-09-10 18:36:00,74.0,67.8,30.06,SW,225,2.0,10.0,81,0.00,,,0.00,Weather View 32 v70,2013-09-10 22:36:00,
2013-09-10 18:41:00,74.0,67.8,30.06,South,180,5.0,10.0,81,0.00,,,0.00,Weather View 32 v70,2013-09-10 22:41:00,
2013-09-10 18:46:00,73.0,66.8,30.06,South,180,3.0,10.0,81,0.00,,,0.00,Weather View 32 v70,2013-09-10 22:46:00,
2013-09-10 18:51:00,73.0,66.8,30.06,East,90,0.0,10.0,81,0.00,,,0.00,Weather View 32 v70,2013-09-10 22:51:00,
2013-09-10 18:56:00,73.0,66.8,30.06,South,180,0.0,10.0,81,0.00,,,0.00,Weather View 32 v70,2013-09-10 22:56:00,
2013-09-10 19:01:00,73.0,67.2,30.06,SSE,158,0.0,10.0,82,0.00,,,0.00,Weather View 32 v70,2013-09-10 23:01:00,
2013-09-10 19:06:00,73.0,67.2,30.06,South,180,2.0,10.0,82,0.00,,,0.00,Weather View 32 v70,2013-09-10 23:06:00,
2013-09-10 19:11:00,73.0,67.2,30.06,South,180,0.0,10.0,82,0.00,,,0.00,Weather View 32 v70,2013-09-10 23:11:00,
2013-09-10 19:16:00,72.0,66.2,30.06,SE,135,0.0,9.0,82,0.00,,,0.00,Weather View 32 v70,2013-09-10 23:16:00,
2013-09-10 19:21:00,72.0,66.2,30.06,South,180,0.0,8.0,82,0.00,,,0.00,Weather View 32 v70,2013-09-10 23:21:00,
2013-09-10 19:26:00,72.0,66.5,30.06,SSW,202,0.0,8.0,83,0.00,,,0.00,Weather View 32 v70,2013-09-10 23:26:00,
2013-09-10 19:31:00,72.0,66.5,30.07,SSE,158,0.0,9.0,83,0.00,,,0.00,Weather View 32 v70,2013-09-10 23:31:00,
2013-09-10 19:36:00,72.0,66.5,30.07,SW,225,0.0,9.0,83,0.00,,,0.00,Weather View 32 v70,2013-09-10 23:36:00,
2013-09-10 19:41:00,72.0,66.5,30.07,SW,225,0.0,9.0,83,0.00,,,0.00,Weather View 32 v70,2013-09-10 23:41:00,
2013-09-10 19:46:00,72.0,66.5,30.07,WSW,248,0.0,9.0,83,0.00,,,0.00,Weather View 32 v70,2013-09-10 23:46:00,
2013-09-10 19:51:00,72.0,66.5,30.07,SSW,202,0.0,9.0,83,0.00,,,0.00,Weather View 32 v70,2013-09-10 23:51:00,
2013-09-10 19:56:00,72.0,66.9,30.07,SSW,202,1.0,9.0,84,0.00,,,0.00,Weather View 32 v70,2013-09-10 23:56:00,
2013-09-10 20:01:00,72.0,66.9,30.08,South,180,0.0,9.0,84,0.00,,,0.00,Weather View 32 v70,2013-09-11 00:01:00,
2013-09-10 20:06:00,72.0,66.9,30.08,SSW,202,2.0,10.0,84,0.00,,,0.00,Weather View 32 v70,2013-09-11 00:06:00,
2013-09-10 20:11:00,72.0,66.9,30.08,South,180,0.0,10.0,84,0.00,,,0.00,Weather View 32 v70,2013-09-11 00:11:00,
2013-09-10 20:16:00,72.0,66.9,30.08,SW,225,0.0,10.0,84,0.00,,,0.00,Weather View 32 v70,2013-09-11 00:16:00,
2013-09-10 20:21:00,72.0,66.9,30.08,SSW,202,5.0,10.0,84,0.00,,,0.00,Weather View 32 v70,2013-09-11 00:21:00,
2013-09-10 20:26:00,72.0,66.9,30.08,SSW,202,5.0,10.0,84,0.00,,,0.00,Weather View 32 v70,2013-09-11 00:26:00,
2013-09-10 20:31:00,72.0,66.9,30.08,SSE,158,5.0,10.0,84,0.00,,,0.00,Weather View 32 v70,2013-09-11 00:31:00,
2013-09-10 20:36:00,71.0,65.9,30.08,SSW,202,0.0,10.0,84,0.00,,,0.00,Weather View 32 v70,2013-09-11 00:36:00,
2013-09-10 20:41:00,71.0,66.2,30.08,SE,135,0.0,10.0,85,0.00,,,0.00,Weather View 32 v70,2013-09-11 00:41:00,
2013-09-10 20:46:00,71.0,66.2,30.08,South,180,0.0,10.0,85,0.00,,,0.00,Weather View 32 v70,2013-09-11 00:46:00,
2013-09-10 20:51:00,71.0,66.2,30.08,ENE,68,0.0,10.0,85,0.00,,,0.00,Weather View 32 v70,2013-09-11 00:51:00,
2013-09-10 20:56:00,71.0,66.2,30.08,WSW,248,0.0,10.0,85,0.00,,,0.00,Weather View 32 v70,2013-09-11 00:56:00,
2013-09-10 21:01:00,71.0,66.2,30.08,WSW,248,0.0,10.0,85,0.00,,,0.00,Weather View 32 v70,2013-09-11 01:01:00,
2013-09-10 21:06:00,71.0,66.2,30.08,SSW,202,0.0,8.0,85,0.00,,,0.00,Weather View 32 v70,2013-09-11 01:06:00,
2013-09-10 21:11:00,71.0,66.6,30.08,SSW,202,0.0,8.0,86,0.00,,,0.00,Weather View 32 v70,2013-09-11 01:11:00,
2013-09-10 21:16:00,71.0,66.6,30.08,WSW,248,0.0,8.0,86,0.00,,,0.00,Weather View 32 v70,2013-09-11 01:16:00,
2013-09-10 21:21:00,71.0,66.6,30.08,West,270,0.0,8.0,86,0.00,,,0.00,Weather View 32 v70,2013-09-11 01:21:00,
2013-09-10 21:26:00,71.0,66.6,30.08,SW,225,0.0,8.0,86,0.00,,,0.00,Weather View 32 v70,2013-09-11 01:26:00,
2013-09-10 21:31:00,71.0,66.9,30.08,SW,225,0.0,8.0,87,0.00,,,0.00,Weather View 32 v70,2013-09-11 01:31:00,
2013-09-10 21:36:00,71.0,66.9,30.09,SW,225,0.0,8.0,87,0.00,,,0.00,Weather View 32 v70,2013-09-11 01:36:00,
2013-09-10 21:41:00,71.0,66.9,30.09,SW,225,0.0,8.0,87,0.00,,,0.00,Weather View 32 v70,2013-09-11 01:41:00,
2013-09-10 21:46:00,71.0,66.9,30.09,South,180,0.0,8.0,87,0.00,,,0.00,Weather View 32 v70,2013-09-11 01:46:00,
2013-09-10 21:51:00,71.0,66.9,30.10,East,90,0.0,6.0,87,0.00,,,0.00,Weather View 32 v70,2013-09-11 01:51:00,
2013-09-10 21:56:00,71.0,66.9,30.10,WSW,248,0.0,6.0,87,0.00,,,0.00,Weather View 32 v70,2013-09-11 01:56:00,
2013-09-10 22:01:00,71.0,66.9,30.10,East,90,0.0,6.0,87,0.00,,,0.00,Weather View 32 v70,2013-09-11 02:01:00,
2013-09-10 22:06:00,71.0,66.9,30.10,SW,225,0.0,6.0,87,0.00,,,0.00,Weather View 32 v70,2013-09-11 02:06:00,
2013-09-10 22:11:00,71.0,66.9,30.10,SW,225,0.0,6.0,87,0.00,,,0.00,Weather View 32 v70,2013-09-11 02:11:00,
2013-09-10 22:16:00,71.0,66.9,30.10,South,180,0.0,5.0,87,0.00,,,0.00,Weather View 32 v70,2013-09-11 02:16:00,
2013-09-10 22:21:00,71.0,66.9,30.10,South,180,0.0,4.0,87,0.00,,,0.00,Weather View 32 v70,2013-09-11 02:21:00,
2013-09-10 22:26:00,71.0,66.9,30.11,SSW,202,0.0,4.0,87,0.00,,,0.00,Weather View 32 v70,2013-09-11 02:26:00,
2013-09-10 22:31:00,71.0,66.9,30.10,South,180,0.0,3.0,87,0.00,,,0.00,Weather View 32 v70,2013-09-11 02:31:00,
2013-09-10 22:36:00,71.0,66.9,30.10,SE,135,0.0,3.0,87,0.00,,,0.00,Weather View 32 v70,2013-09-11 02:36:00,
2013-09-10 22:41:00,71.0,66.9,30.10,ESE,112,0.0,3.0,87,0.00,,,0.00,Weather View 32 v70,2013-09-11 02:41:00,
2013-09-10 22:46:00,71.0,66.9,30.10,SE,135,0.0,3.0,87,0.00,,,0.00,Weather View 32 v70,2013-09-11 02:46:00,
2013-09-10 22:52:00,71.0,66.9,30.10,SSE,158,0.0,3.0,87,0.00,,,0.00,Weather View 32 v70,2013-09-11 02:52:00,
2013-09-10 22:57:00,71.0,66.9,30.10,ESE,112,0.0,3.0,87,0.00,,,0.00,Weather View 32 v70,2013-09-11 02:57:00,
2013-09-10 23:02:00,71.0,67.3,30.10,SW,225,0.0,3.0,88,0.00,,,0.00,Weather View 32 v70,2013-09-11 03:02:00,
2013-09-10 23:07:00,71.0,67.3,30.10,East,90,0.0,3.0,88,0.00,,,0.00,Weather View 32 v70,2013-09-11 03:07:00,
2013-09-10 23:12:00,71.0,67.3,30.10,SSE,158,0.0,3.0,88,0.00,,,0.00,Weather View 32 v70,2013-09-11 03:12:00,
2013-09-10 23:17:00,71.0,67.3,30.10,South,180,0.0,1.0,88,0.00,,,0.00,Weather View 32 v70,2013-09-11 03:17:00,
2013-09-10 23:22:00,71.0,67.3,30.10,SSE,158,0.0,1.0,88,0.00,,,0.00,Weather View 32 v70,2013-09-11 03:22:00,
2013-09-10 23:27:00,71.0,67.3,30.10,SSE,158,0.0,1.0,88,0.00,,,0.00,Weather View 32 v70,2013-09-11 03:27:00,
2013-09-10 23:32:00,71.0,67.3,30.10,ESE,112,0.0,1.0,88,0.00,,,0.00,Weather View 32 v70,2013-09-11 03:32:00,
2013-09-10 23:37:00,71.0,67.3,30.09,SE,135,0.0,2.0,88,0.00,,,0.00,Weather View 32 v70,2013-09-11 03:37:00,
2013-09-10 23:42:00,71.0,67.3,30.09,WSW,248,0.0,2.0,88,0.00,,,0.00,Weather View 32 v70,2013-09-11 03:42:00,
2013-09-10 23:47:00,71.0,67.3,30.09,NE,45,0.0,2.0,88,0.00,,,0.00,Weather View 32 v70,2013-09-11 03:47:00,
2013-09-10 23:52:00,70.0,66.3,30.09,SE,135,0.0,2.0,88,0.00,,,0.00,Weather View 32 v70,2013-09-11 03:52:00,
2013-09-10 23:57:00,70.0,66.3,30.09,ENE,68,0.0,2.0,88,0.00,,,0.00,Weather View 32 v70,2013-09-11 03:57:00,